Вернуться в каталог

WEILI KONGJIAN 05-04

АктивенНавигацияLEO
NORAD 69585·PAYLOAD·🇨🇳 China
Это название спутника еще не подтверждено официальными источниками.

Запущен Jun 17, 2026 с Jiuquan Satellite Launch Center

Loading…

Ближайшие Пролёты (ближайшие 24 часа)

TLE

СвежийSource: Space-Track

Эпоха: Sep 14, 2026, 10:42 UTC

1 69585U 26138D   26257.44628376 -.00000047  00000-0  53875-4 0  9999
2 69585  55.1409 311.3854 0012803  97.6961 262.5468 14.15931773 12665

Отслеживайте WEILI KONGJIAN 05-04 в реальном времени с AllMySat

Download on the App Store